When you browse on this site, cookies collect data to enhance your experience and personalize the content and advertising you see.
Visit our Privacy Policy to learn more. By continuing to use the site, you agree to this use of cookies and data.
  • In Romania
  • List of Countries
  • For 7 days
  • Water Temperature
  • Weather Map
  • Weather Widgets
  • user-avatar
    Login

    Hourly Weather Saint-Medard-en-Jalles

    Today, 19 September, Thursday

    Time Temperature Precipitation Wind Pressure Humidity
    00:00 +18°C° 0 mm 3 mps 760 mmHg 38%
    01:00 +17°C° 0 mm 3 mps 760 mmHg 40%
    02:00 +17°C° 0 mm 3 mps 760 mmHg 42%
    03:00 +16°C° 0 mm 3 mps 759 mmHg 45%
    04:00 +14°C° 0 mm 3 mps 759 mmHg 47%
    05:00 +14°C° 0 mm 3 mps 760 mmHg 49%
    06:00 +13°C° 0 mm 3 mps 760 mmHg 51%
    07:00 +16°C° 0 mm 3 mps 760 mmHg 48%
    08:00 +18°C° 0 mm 3 mps 760 mmHg 45%
    09:00 +20°C° 0 mm 3 mps 760 mmHg 42%
    10:00 +22°C° 0 mm 3 mps 760 mmHg 38%
    11:00 +25°C° 0 mm 3 mps 760 mmHg 35%
    12:00 +27°C° 0 mm 3 mps 760 mmHg 31%
    13:00 +28°C° 0 mm 3 mps 760 mmHg 29%
    14:00 +28°C° 0 mm 3 mps 759 mmHg 28%
    15:00 +29°C° 0 mm 3 mps 759 mmHg 26%
    16:00 +27°C° 0 mm 3 mps 759 mmHg 29%
    17:00 +25°C° 0 mm 3 mps 759 mmHg 33%
    18:00 +24°C° 0 mm 3 mps 758 mmHg 36%
    19:00 +22°C° 0 mm 3 mps 759 mmHg 36%
    20:00 +21°C° 0 mm 3 mps 759 mmHg 35%
    21:00 +20°C° 0 mm 4 mps 759 mmHg 35%
    22:00 +19°C° 0 mm 3 mps 759 mmHg 37%
    23:00 +18°C° 0 mm 3 mps 759 mmHg 39%

    Tomorrow, 20 September, Friday

    Time Temperature Precipitation Wind Pressure Humidity
    00:00 +17°C° 0 mm 3 mps 759 mmHg 41%
    01:00 +17°C° 0 mm 3 mps 758 mmHg 44%
    02:00 +17°C° 0 mm 3 mps 758 mmHg 47%
    03:00 +16°C° 0 mm 3 mps 757 mmHg 50%
    04:00 +16°C° 0 mm 2 mps 757 mmHg 56%
    05:00 +16°C° 0 mm 2 mps 757 mmHg 62%
    06:00 +16°C° 0 mm 2 mps 757 mmHg 68%
    07:00 +19°C° 0 mm 3 mps 757 mmHg 62%
    08:00 +22°C° 0 mm 3 mps 757 mmHg 57%
    09:00 +25°C° 0 mm 4 mps 758 mmHg 51%
    10:00 +27°C° 0 mm 4 mps 757 mmHg 46%
    11:00 +29°C° 0 mm 4 mps 757 mmHg 42%
    12:00 +30°C° 0 mm 4 mps 756 mmHg 37%
    13:00 +32°C° 0 mm 4 mps 756 mmHg 35%
    14:00 +33°C° 0 mm 4 mps 755 mmHg 34%
    15:00 +34°C° 0 mm 4 mps 755 mmHg 33%
    16:00 +32°C° 0.1 mm 4 mps 755 mmHg 39%
    17:00 +29°C° 0.1 mm 4 mps 754 mmHg 44%
    18:00 +28°C° 0.1 mm 4 mps 754 mmHg 50%
    19:00 +26°C° 0.4 mm 4 mps 754 mmHg 59%
    20:00 +23°C° 0.4 mm 4 mps 755 mmHg 67%
    21:00 +22°C° 0.4 mm 5 mps 755 mmHg 75%
    22:00 +21°C° 0.1 mm 5 mps 755 mmHg 79%
    23:00 +20°C° 0.1 mm 4 mps 754 mmHg 82%

    Day after tomorrow, 21 September, Saturday

    Time Temperature Precipitation Wind Pressure Humidity
    00:00 +20°C° 0.1 mm 4 mps 754 mmHg 85%
    01:00 +20°C° 0 mm 4 mps 754 mmHg 85%
    02:00 +20°C° 0 mm 4 mps 754 mmHg 86%
    03:00 +20°C° 0 mm 4 mps 754 mmHg 86%
    04:00 +20°C° 0 mm 4 mps 753 mmHg 86%
    05:00 +20°C° 0 mm 4 mps 753 mmHg 85%
    06:00 +20°C° 0 mm 4 mps 753 mmHg 85%
    07:00 +21°C° 0 mm 4 mps 753 mmHg 80%
    08:00 +22°C° 0 mm 4 mps 753 mmHg 75%
    09:00 +23°C° 0 mm 4 mps 753 mmHg 70%
    10:00 +26°C° 0 mm 4 mps 753 mmHg 58%
    11:00 +29°C° 0 mm 4 mps 752 mmHg 46%
    12:00 +33°C° 0 mm 4 mps 752 mmHg 34%
    13:00 +31°C° 0 mm 3 mps 752 mmHg 35%
    14:00 +31°C° 0 mm 3 mps 751 mmHg 35%
    15:00 +30°C° 0 mm 2 mps 751 mmHg 36%
    16:00 +29°C° 0 mm 2 mps 750 mmHg 42%
    17:00 +27°C° 0 mm 2 mps 750 mmHg 48%
    18:00 +26°C° 0 mm 1 mps 750 mmHg 54%
    19:00 +25°C° 0 mm 3 mps 750 mmHg 57%
    20:00 +25°C° 0 mm 4 mps 750 mmHg 60%
    21:00 +25°C° 0 mm 5 mps 750 mmHg 63%
    22:00 +25°C° 0 mm 5 mps 750 mmHg 62%
    23:00 +25°C° 0 mm 4 mps 750 mmHg 61%

    22 September, Sunday

    Time Temperature Precipitation Wind Pressure Humidity
    00:00 +25°C° 0 mm 4 mps 750 mmHg 60%
    01:00 +22°C° 0 mm 4 mps 751 mmHg 66%
    02:00 +21°C° 0 mm 4 mps 751 mmHg 71%
    03:00 +19°C° 0 mm 4 mps 752 mmHg 77%
    04:00 +18°C° 0.8 mm 3 mps 752 mmHg 82%
    05:00 +18°C° 0.8 mm 2 mps 753 mmHg 86%
    06:00 +18°C° 0.8 mm 1 mps 753 mmHg 91%
    07:00 +18°C° 0.1 mm 2 mps 754 mmHg 84%
    08:00 +19°C° 0.1 mm 3 mps 754 mmHg 78%
    09:00 +20°C° 0.1 mm 3 mps 755 mmHg 72%
    10:00 +21°C° 0 mm 4 mps 755 mmHg 65%
    11:00 +22°C° 0 mm 5 mps 756 mmHg 58%
    12:00 +23°C° 0 mm 6 mps 756 mmHg 50%
    13:00 +22°C° 0.1 mm 6 mps 756 mmHg 52%
    14:00 +22°C° 0.1 mm 6 mps 756 mmHg 54%
    15:00 +22°C° 0.1 mm 6 mps 756 mmHg 56%
    16:00 +21°C° 0 mm 5 mps 756 mmHg 61%
    17:00 +19°C° 0 mm 4 mps 757 mmHg 67%
    18:00 +18°C° 0 mm 3 mps 757 mmHg 73%
    19:00 +17°C° 0 mm 3 mps 758 mmHg 77%
    20:00 +17°C° 0 mm 2 mps 758 mmHg 81%
    21:00 +16°C° 0 mm 2 mps 759 mmHg 85%
    22:00 +16°C° 0.1 mm 2 mps 759 mmHg 86%
    23:00 +16°C° 0.1 mm 2 mps 759 mmHg 87%

    23 September, Monday

    Time Temperature Precipitation Wind Pressure Humidity
    00:00 +16°C° 0.1 mm 2 mps 759 mmHg 88%
    01:00 +16°C° 0.1 mm 2 mps 759 mmHg 87%
    02:00 +16°C° 0.1 mm 2 mps 759 mmHg 86%
    03:00 +16°C° 0.1 mm 2 mps 759 mmHg 85%
    04:00 +16°C° 0 mm 2 mps 759 mmHg 86%
    05:00 +16°C° 0 mm 2 mps 759 mmHg 86%
    06:00 +16°C° 0 mm 2 mps 759 mmHg 86%
    07:00 +17°C° 0 mm 2 mps 759 mmHg 78%
    08:00 +19°C° 0 mm 2 mps 760 mmHg 69%
    09:00 +20°C° 0 mm 2 mps 760 mmHg 61%
    10:00 +21°C° 0 mm 2 mps 760 mmHg 56%
    11:00 +22°C° 0 mm 3 mps 760 mmHg 51%
    12:00 +24°C° 0 mm 3 mps 759 mmHg 46%
    13:00 +24°C° 0 mm 3 mps 759 mmHg 47%
    14:00 +24°C° 0 mm 3 mps 759 mmHg 47%
    15:00 +24°C° 0 mm 3 mps 758 mmHg 47%
    16:00 +23°C° 0 mm 2 mps 759 mmHg 52%
    17:00 +21°C° 0 mm 1 mps 759 mmHg 58%
    18:00 +20°C° 0 mm 1 mps 759 mmHg 63%
    19:00 +20°C° 0 mm 1 mps 759 mmHg 65%
    20:00 +19°C° 0 mm 1 mps 759 mmHg 67%
    21:00 +18°C° 0 mm 2 mps 760 mmHg 70%
    22:00 +18°C° 0 mm 2 mps 760 mmHg 75%
    23:00 +18°C° 0 mm 1 mps 759 mmHg 81%

    24 September, Tuesday

    Time Temperature Precipitation Wind Pressure Humidity
    00:00 +16°C° 0 mm 1 mps 759 mmHg 86%
    01:00 +16°C° 0 mm 1 mps 759 mmHg 87%
    02:00 +16°C° 0 mm 1 mps 759 mmHg 88%
    03:00 +18°C° 0 mm 1 mps 758 mmHg 88%
    04:00 +16°C° 0 mm 2 mps 758 mmHg 89%
    05:00 +16°C° 0 mm 2 mps 758 mmHg 90%
    06:00 +16°C° 0 mm 2 mps 758 mmHg 90%
    07:00 +18°C° 0 mm 3 mps 758 mmHg 81%
    08:00 +20°C° 0 mm 3 mps 758 mmHg 71%
    09:00 +22°C° 0 mm 4 mps 757 mmHg 62%
    10:00 +25°C° 0 mm 4 mps 757 mmHg 54%
    11:00 +28°C° 0 mm 4 mps 757 mmHg 47%
    12:00 +30°C° 0 mm 4 mps 757 mmHg 39%
    13:00 +30°C° 0 mm 4 mps 757 mmHg 41%
    14:00 +29°C° 0 mm 5 mps 757 mmHg 43%
    15:00 +28°C° 0 mm 5 mps 756 mmHg 44%
    16:00 +26°C° 0 mm 4 mps 756 mmHg 53%
    17:00 +25°C° 0 mm 3 mps 756 mmHg 62%
    18:00 +23°C° 0 mm 2 mps 756 mmHg 71%
    19:00 +21°C° 0 mm 2 mps 757 mmHg 77%
    20:00 +20°C° 0 mm 2 mps 757 mmHg 82%
    21:00 +20°C° 0 mm 2 mps 757 mmHg 88%
    22:00 +20°C° 0.2 mm 2 mps 757 mmHg 88%
    23:00 +20°C° 0.2 mm 2 mps 756 mmHg 89%
    Show more